FW5354 Weather Reports


Display with metric or nautical units.
time (UTC)temp
F
wind
direction
speed
MPH
gust
MPH
rain 1hr
in
rain 24hr
in
rain mn
in
humidity
%
barometer
mb
20260506171536 81 109 0.0 1.0 0.00 0.00 0.00 76 1008.5
20260506170043 81 108 0.0 2.0 0.00 0.00 0.00 76 1008.6
20260506164548 82 108 0.0 0.0 0.00 0.00 0.00 76 1008.4
20260506163030 81 127 0.0 0.0 0.00 0.00 0.00 76 1008.4
20260506161528 81 106 0.0 0.0 0.00 0.00 0.00 76 1008.2
20260506160025 81 105 0.0 0.0 0.00 0.00 0.00 76 1008.0
20260506154524 80 105 0.0 0.0 0.00 0.00 0.00 76 1008.0
20260506153023 80 105 0.0 0.0 0.00 0.00 0.00 76 1008.0
20260506151522 80 105 0.0 0.0 0.00 0.00 0.00 76 1007.8
20260506150021 80 105 0.0 2.0 0.00 0.00 0.00 76 1007.6
20260506144525 80 156 0.0 2.0 0.00 0.00 0.00 75 1007.5
20260506143021 79 114 0.0 2.0 0.00 0.00 0.00 73 1007.1
20260506141527 79 115 0.0 1.0 0.00 0.00 0.00 73 1007.1
20260506140017 78 115 0.0 1.0 0.00 0.00 0.00 71 1007.2
20260506134516 78 118 0.0 0.0 0.00 0.00 0.00 67 1007.3
20260506133016 77 118 0.0 2.0 0.00 0.00 0.00 65 1007.3
20260506131521 77 103 0.0 0.0 0.00 0.00 0.00 63 1007.6
20260506130020 76 104 0.0 0.0 0.00 0.00 0.00 61 1007.4
20260506124519 76 104 0.0 0.0 0.00 0.00 0.00 60 1007.4
20260506123019 75 104 0.0 0.0 0.00 0.00 0.00 59 1007.2
20260506121515 75 104 0.0 0.0 0.00 0.00 0.00 60 1007.1
20260506120028 75 104 0.0 0.0 0.00 0.00 0.00 60 1007.0
20260506114513 75 104 0.0 0.0 0.00 0.00 0.00 61 1006.9
20260506113012 75 104 0.0 0.0 0.00 0.00 0.00 62 1006.7
20260506111514 75 104 0.0 1.0 0.00 0.00 0.00 63 1006.5
20260506110012 75 104 0.0 2.0 0.00 0.00 0.00 64 1006.2
20260506104523 75 102 0.0 2.0 0.00 0.00 0.00 66 1006.1
20260506103032 76 104 0.0 3.0 0.00 0.00 0.00 68 1006.1
20260506101509 76 102 1.0 4.0 0.00 0.00 0.00 69 1006.1
20260506100009 76 101 0.0 2.0 0.00 0.00 0.00 70 1006.2
20260506094511 76 100 0.0 3.0 0.00 0.00 0.00 71 1006.0
20260506093017 76 109 1.0 2.0 0.00 0.00 0.00 71 1005.7
20260506091505 77 102 0.0 2.0 0.00 0.00 0.00 71 1005.8
20260506090004 77 98 0.0 3.0 0.00 0.00 0.00 71 1005.8
20260506084503 77 105 0.0 3.0 0.00 0.00 0.00 71 1006.0
20260506083003 77 101 1.0 4.0 0.00 0.00 0.00 71 1006.0
20260506081503 77 101 0.0 3.0 0.00 0.00 0.00 71 1006.0
20260506073101 77 96 0.0 0.0 0.00 0.00 0.00 72 1006.6
20260506071502 77 100 0.0 3.0 0.00 0.00 0.00 72 1006.8
20260506061559 77 103 0.0 1.0 0.00 0.00 0.00 72 1007.0
20260506044554 77 97 0.0 5.0 0.00 0.00 0.00 75 1006.8
20260506043052 78 101 1.0 3.0 0.00 0.00 0.00 76 1007.0
20260506041605 78 103 1.0 4.0 0.00 0.00 0.00 76 1007.0
20260506040053 78 103 1.0 3.0 0.00 0.00 0.00 76 1006.9
20260506034555 78 101 1.0 4.0 0.00 0.00 0.00 76 1006.5
20260506033051 78 102 1.0 3.0 0.00 0.00 0.00 77 1006.6
20260506031554 78 101 0.0 5.0 0.00 0.00 0.00 77 1006.4
20260506030050 78 117 1.0 4.0 0.00 0.00 0.00 77 1006.1
20260506024549 79 99 2.0 5.0 0.00 0.00 0.00 77 1006.0
20260506023102 79 106 1.0 7.0 0.00 0.00 0.00 77 1005.6
20260506021607 79 102 2.0 6.0 0.00 0.00 0.00 77 1005.5
20260506020046 79 102 0.0 2.0 0.00 0.00 0.00 76 1005.5
20260506014545 79 101 0.0 4.0 0.00 0.00 0.00 76 1005.3
20260506013053 80 103 1.0 5.0 0.00 0.00 0.00 76 1005.0
20260506011553 80 107 0.0 5.0 0.00 0.00 0.00 76 1004.7
20260506010042 80 102 1.0 4.0 0.00 0.00 0.00 75 1004.5
20260506004540 80 100 1.0 3.0 0.00 0.00 0.00 75 1004.4
20260506003041 81 89 1.0 5.0 0.00 0.00 0.00 74 1004.4
20260506001541 81 98 1.0 5.0 0.00 0.00 0.00 75 1004.3
20260506000040 81 106 1.0 4.0 0.00 0.00 0.00 74 1004.4
20260505234538 82 99 2.0 6.0 0.00 0.00 0.00 74 1004.3
20260505233038 82 95 3.0 7.0 0.00 0.00 0.00 74 1004.2
20260505231635 82 101 1.0 4.0 0.00 0.00 0.00 74 1004.1
20260505230034 83 99 2.0 4.0 0.00 0.00 0.00 73 1004.2
20260505224533 83 93 2.0 5.0 0.00 0.00 0.00 73 1004.3
20260505223032 83 96 2.0 8.0 0.00 0.00 0.00 71 1004.3
20260505221536 84 89 1.0 4.0 0.00 0.00 0.00 71 1004.3
20260505220034 85 105 1.0 3.0 0.00 0.00 0.00 70 1004.4
20260505214548 85 105 0.0 3.0 0.00 0.00 0.00 70 1004.6
20260505213132 85 110 1.0 7.0 0.00 0.00 0.00 70 1004.7
20260505211528 85 94 1.0 5.0 0.00 0.00 0.00 70 1004.8
20260505210026 85 98 2.0 6.0 0.00 0.00 0.00 70 1005.0
20260505204526 85 108 1.0 6.0 0.00 0.00 0.00 70 1005.2
20260505203030 86 110 2.0 5.0 0.00 0.00 0.00 68 1005.5
20260505201530 85 125 1.0 7.0 0.00 0.00 0.00 71 1005.7
20260505200020 84 103 1.0 4.0 0.00 0.00 0.00 72 1006.0
20260505194517 84 98 1.0 3.0 0.00 0.00 0.00 72 1006.1
20260505193015 83 110 2.0 4.0 0.00 0.00 0.00 73 1006.2
20260505191517 84 101 0.0 4.0 0.00 0.00 0.00 72 1006.2
20260505190012 82 106 1.0 3.0 0.00 0.00 0.00 74 1006.3
20260505184508 82 98 2.0 4.0 0.00 0.00 0.00 74 1006.5
20260505183012 82 97 1.0 3.0 0.00 0.00 0.00 74 1006.6
20260505181508 82 103 0.0 3.0 0.00 0.00 0.00 75 1006.7
20260505180008 81 103 1.0 3.0 0.00 0.00 0.00 75 1006.8
20260505174506 80 110 0.0 2.0 0.00 0.00 0.00 76 1006.9
20260505173001 80 93 0.0 7.0 0.00 0.00 0.00 76 1007.2